Date,TemperatureHighF,TemperatureAvgF,TemperatureLowF,DewpointHighF,DewpointAvgF,DewpointLowF,HumidityHigh,HumidityAvg,HumidityLow,PressureMaxIn,PressureMinIn,WindSpeedMaxMPH,WindSpeedAvgMPH,GustSpeedMaxMPH,PrecipitationSumIn
2013-3-1,44,41,37,33,31,29,72,68,61,30.32,30.25,12,3,0,0.00
2013-3-2,60,41,29,30,26,23,81,58,27,30.45,30.26,22,3,0,0.00
2013-3-3,69,52,32,45,33,25,78,51,30,30.27,29.83,20,4,0,0.00
2013-3-4,80,66,55,57,50,44,80,59,36,29.83,29.61,26,8,0,0.00
2013-3-5,64,51,36,54,30,21,71,47,22,30.38,29.75,31,9,0,0.00
2013-3-6,68,46,30,32,26,18,79,48,16,30.49,30.23,13,1,0,0.00
2013-3-7,72,54,35,37,30,22,71,44,21,30.28,30.12,23,3,0,0.00
2013-3-8,65,59,52,57,51,37,84,76,49,30.21,30.02,13,4,0,0.00
2013-3-9,70,65,60,64,60,55,93,84,78,30.02,29.66,22,6,0,0.01
2013-3-10,65,51,39,62,43,33,95,76,59,30.10,29.69,29,8,0,1.21
2013-3-11,63,44,31,36,31,25,94,64,25,30.15,30.03,19,3,0,0.00
2013-3-12,74,52,33,38,33,28,88,53,23,30.32,30.07,15,2,0,0.00
2013-3-13,75,55,39,42,37,33,85,54,26,30.46,30.32,12,2,0,0.00
2013-3-14,75,60,48,51,43,33,67,52,38,30.38,30.19,23,4,0,0.00
2013-3-15,79,66,53,58,50,45,90,61,34,30.19,29.90,22,6,0,0.00
2013-3-16,81,68,58,62,56,51,90,67,47,29.90,29.70,25,6,0,0.00
2013-3-17,77,68,57,63,58,51,89,74,49,29.79,29.66,20,4,0,0.00
2013-3-18,77,63,52,64,52,39,94,69,40,30.02,29.64,18,4,0,0.00
2013-3-19,72,57,43,47,41,36,88,58,37,30.14,29.96,19,4,0,0.00
2013-3-20,75,56,41,41,36,32,81,51,22,30.32,30.05,17,3,0,0.00
2013-3-21,68,58,47,57,43,33,76,57,45,30.05,29.60,21,5,0,0.00
2013-3-22,65,54,47,61,50,45,95,86,71,29.87,29.59,17,5,0,0.00
2013-3-23,57,50,46,52,48,45,97,92,82,29.93,29.68,25,4,0,0.05
2013-3-24,58,46,38,48,33,24,94,63,35,30.20,29.80,31,11,0,0.04
2013-3-25,59,43,27,29,23,18,83,49,22,30.43,30.20,26,4,0,0.00
2013-3-26,66,44,26,31,24,19,78,50,23,30.54,30.34,14,1,0,0.00
2013-3-27,70,54,38,42,33,24,62,47,28,30.36,30.12,21,2,0,0.00
2013-3-28,72,62,50,58,52,41,86,71,60,30.24,30.10,15,3,0,0.00
2013-3-29,75,67,59,61,58,56,88,75,59,30.20,30.04,17,4,0,0.00
2013-3-30,74,66,55,66,61,54,97,85,72,30.09,29.89,20,3,0,0.88
2013-3-31,80,67,57,65,60,52,97,79,52,29.98,29.81,30,4,0,0.26
2013-4-1,84,65,47,58,52,45,100,68,35,30.08,29.94,12,1,0,0.11
2013-4-2,73,65,51,64,57,42,87,77,67,30.03,29.90,26,5,0,0.03
2013-4-3,53,49,45,48,45,44,95,89,76,30.17,29.94,24,6,0,0.02
2013-4-4,54,46,42,47,42,40,95,87,72,30.22,30.12,19,5,0,0.02
2013-4-5,69,54,39,52,46,38,96,74,46,30.28,30.05,9,1,0,0.04
2013-4-6,76,64,54,61,54,49,85,71,50,30.05,29.85,22,5,0,0.05
2013-4-7,73,66,60,63,60,56,89,80,71,29.93,29.75,17,5,0,0.05
2013-4-8,76,70,64,66,63,59,86,77,68,29.77,29.67,21,6,0,0.04
2013-4-9,83,74,69,68,66,62,88,75,56,29.73,29.62,21,6,0,0.01
2013-4-10,73,50,40,69,47,37,96,90,67,29.99,29.68,26,8,0,0.01
2013-4-11,68,49,38,46,39,34,93,72,41,30.00,29.83,18,1,0,0.00
2013-4-12,81,58,39,53,46,37,96,67,34,30.02,29.88,11,1,0,0.01
2013-4-13,82,65,49,56,50,44,88,60,35,30.02,29.79,19,3,0,0.00
2013-4-14,80,69,56,66,59,48,88,72,57,29.79,29.56,19,4,0,0.01
2013-4-15,86,75,68,71,67,65,93,77,54,29.75,29.62,19,5,0,0.00
2013-4-16,90,78,70,70,68,66,89,73,50,29.90,29.74,17,4,0,0.00
2013-4-17,86,78,73,71,70,68,89,77,58,29.88,29.64,24,6,0,0.00
2013-4-18,74,56,44,71,49,36,95,79,54,30.16,29.55,31,10,0,1.00
2013-4-19,66,49,36,43,36,31,92,63,30,30.30,30.14,24,4,0,0.35
2013-4-20,74,58,41,43,39,36,84,53,27,30.24,30.04,20,3,0,0.08
2013-4-21,76,60,42,54,47,39,95,66,39,30.24,30.08,17,2,0,0.00
2013-4-22,78,65,51,62,54,46,88,70,54,30.14,29.86,22,3,0,0.00
2013-4-23,68,56,44,63,52,40,94,86,74,30.17,29.81,22,6,0,0.00
2013-4-24,69,52,40,46,40,36,91,67,38,30.33,30.17,24,5,0,0.00
2013-4-25,78,62,46,53,45,38,80,57,33,30.36,30.17,13,2,0,0.00
2013-4-26,77,66,57,68,58,46,88,75,60,30.19,29.98,16,4,0,0.00
2013-4-27,80,70,56,66,62,53,93,78,50,30.10,29.98,18,4,0,0.00
2013-4-28,84,66,48,68,59,47,100,82,58,30.05,29.87,9,1,0,0.00
2013-4-29,85,72,60,68,63,59,96,74,47,29.91,29.79,17,2,0,0.00
2013-4-30,87,72,60,68,63,56,96,75,49,29.84,29.74,16,2,0,0.00
2013-5-1,89,73,62,70,64,60,96,76,45,29.96,29.79,15,4,0,0.00
2013-5-2,66,54,43,62,49,38,93,86,74,30.33,29.93,31,9,0,0.02
2013-5-3,67,48,39,39,37,32,87,68,28,30.30,30.15,28,10,0,0.00
2013-5-6,79,68,58,59,56,54,87,68,44,30.03,29.99,8,0,0,0.00
2013-5-7,88,70,51,62,55,49,95,65,34,30.08,29.93,15,1,0,0.00
2013-5-8,86,72,59,63,59,53,84,64,43,30.01,29.86,17,2,0,0.00
2013-5-9,72,68,65,68,65,59,97,88,65,29.97,29.83,17,3,0,0.20
2013-5-10,87,71,63,70,65,60,98,83,49,30.03,29.86,11,1,0,0.02
2013-5-11,84,70,58,60,56,50,93,65,34,30.16,30.00,19,4,0,0.00
2013-5-12,82,66,52,54,47,37,83,54,21,30.26,30.14,17,2,0,0.00
2013-5-13,86,69,51,55,50,44,79,53,29,30.25,30.11,16,2,0,0.00
2013-5-14,86,73,60,64,57,51,90,61,32,30.16,29.98,16,3,0,0.00
2013-5-15,78,70,68,70,66,61,96,87,70,30.05,29.79,21,5,0,0.06
2013-5-16,81,70,62,72,67,61,97,89,74,29.89,29.74,17,3,0,0.23
2013-5-17,91,79,71,77,73,69,97,82,58,29.85,29.77,14,2,0,0.03
2013-5-18,92,81,71,76,72,68,91,76,56,29.90,29.75,16,4,0,0.02
2013-5-19,90,80,70,73,70,67,92,74,55,29.84,29.67,22,5,0,0.01
2013-5-20,89,80,73,74,71,69,88,76,58,29.82,29.65,21,5,0,0.01
2013-5-21,85,73,62,74,68,61,97,86,68,29.86,29.64,24,4,0,0.00
2013-5-22,90,71,55,70,63,54,98,78,42,29.95,29.83,11,0,0,0.02
2013-5-23,91,77,68,75,71,64,97,83,59,30.06,29.87,19,2,0,0.01
2013-5-24,88,78,67,77,72,66,96,84,66,30.20,29.98,16,3,0,0.01
2013-5-25,85,73,67,74,69,66,97,87,65,30.15,30.03,14,2,0,0.01
2013-5-26,88,78,70,74,71,68,95,82,60,30.08,29.92,15,3,0,0.01
2013-5-27,87,78,71,72,70,68,93,76,56,29.98,29.79,16,4,0,0.00
2013-5-28,87,79,71,71,69,67,89,73,54,29.88,29.76,20,5,0,0.01
2013-5-29,82,77,73,73,70,69,88,81,71,29.83,29.71,23,6,0,0.01
2013-5-30,88,80,74,76,73,70,88,79,66,29.79,29.68,20,5,0,0.00
2013-5-31,92,83,76,76,74,72,88,75,55,29.82,29.66,20,4,0,0.00
2013-6-1,88,80,73,78,73,69,88,79,64,29.92,29.70,21,5,0,0.01
2013-6-2,87,75,63,69,61,53,89,65,33,30.05,29.91,20,3,0,0.01
2013-6-3,92,74,58,68,62,56,98,70,40,29.99,29.83,10,2,0,0.00
2013-6-4,93,79,67,73,69,63,89,71,48,30.01,29.78,18,3,0,0.00
2013-6-5,92,80,70,76,71,67,94,75,50,29.95,29.73,17,2,0,0.00
2013-6-6,81,73,67,73,69,65,97,87,67,29.92,29.76,22,3,0,0.02
2013-6-7,88,73,60,65,62,59,96,72,40,30.00,29.88,14,2,0,0.01
2013-6-8,91,75,59,68,63,57,98,70,43,29.93,29.79,14,2,0,0.01
2013-6-9,94,78,68,76,70,64,96,76,50,29.92,29.84,16,2,0,0.01
2013-6-10,97,82,69,75,70,66,95,71,39,29.95,29.88,13,2,0,0.01
2013-6-11,94,83,74,76,73,69,94,73,51,30.01,29.90,14,3,0,0.00
2013-6-12,94,83,75,75,73,71,95,74,49,30.05,29.91,19,2,0,0.02
2013-6-13,99,85,73,77,74,70,93,72,43,30.04,29.87,13,2,0,0.00
2013-6-14,97,85,73,79,74,70,91,70,47,29.97,29.85,11,0,0,0.00
2013-6-15,92,81,73,78,74,69,94,80,60,29.99,29.86,24,2,0,0.01
2013-6-16,96,84,75,78,74,70,95,72,45,30.00,29.85,13,2,0,0.00
2013-6-17,91,80,69,81,74,67,96,82,63,30.02,29.84,19,1,0,0.01
2013-6-18,87,77,71,75,72,69,93,85,67,29.99,29.86,18,2,0,0.00
2013-6-19,95,80,68,80,73,66,98,81,54,29.99,29.86,11,2,0,0.00
2013-6-20,96,84,75,75,72,70,93,70,45,30.03,29.91,16,3,0,0.00
2013-6-21,97,84,75,76,73,71,90,72,44,30.06,29.96,15,3,0,0.00
2013-12-24,53,44,28,37,34,27,95,67,48,30.58,30.31,6,3,11,0.00
2013-12-25,60,43,33,46,37,29,92,78,58,30.44,30.31,7,2,11,0.00
2013-12-26,58,41,30,42,35,29,95,82,54,30.48,30.36,4,0,6,0.00
2013-12-27,63,44,29,45,36,28,97,78,40,30.49,30.35,3,0,7,0.01
2013-12-28,61,47,35,44,39,34,97,75,48,30.35,30.00,5,1,10,0.00
2013-12-29,54,42,32,46,34,25,92,75,66,30.31,29.97,10,3,18,0.00
2013-12-30,50,35,28,29,25,21,79,66,42,30.45,30.27,8,2,12,0.00
2013-12-31,58,39,24,31,26,21,93,64,33,30.48,30.25,4,0,8,0.00
2014-1-1,66,48,35,51,39,29,88,73,57,30.26,29.90,17,5,26,0.00
2014-1-2,48,33,24,29,22,19,80,65,36,30.50,30.19,17,5,24,0.00